Weather History for Henderson, TX

Change the Weather History Date:

Friday, March 8, 2013

  Actual Average (KGGG) Record (KGGG)
Temperature  
Mean Temperature 56 °F 56 °F  
Max Temperature 72 °F 67 °F 88 °F (1911)
Min Temperature 40 °F 45 °F 20 °F (1932)
Degree Days  
Heating Degree Days 9 10  
Month to date heating degree days 86  
Since 1 July heating degree days 1990  
Cooling Degree Days 0 1  
Month to date cooling degree days 8  
Year to date cooling degree days 20  
Growing Degree Days 6 (Base 50)    
Moisture  
Dew Point 40 °F    
Average Humidity 54    
Maximum Humidity 84    
Minimum Humidity 31    
Precipitation  
Precipitation 0.00 in 0.14 in 1.61 in (1927)
Month to date precipitation 1.12  
Year to date precipitation 8.48  
Snow  
Snow 0.00 in - - ()
Month to date snowfall  
Since 1 July snowfall  
Snow Depth -    
Sea Level Pressure  
Sea Level Pressure 30.17 in    
Wind  
Wind Speed 4 mph (SE)    
Max Wind Speed 13 mph    
Max Gust Speed 18 mph    
Visibility 10 miles    
Events      
T = Trace of Precipitation, MM = Missing Value Source: NWS Daily Summary

Daily Weather History Graph

Daily Weather History Graph

Search for Another Location

Airport:

Trip Planner

Search our weather history database for the weather conditions in past years. The results will help you decide how hot, cold, wet, or windy it might be!

Date:

Astronomy

Mar. 08, 2013 Rise Set
Actual Time 6:38 AM CST 6:22 PM CST
Civil Twilight 6:13 AM CST 6:47 PM CST
Nautical Twilight 5:45 AM CST 7:15 PM CST
Astronomical Twilight 5:16 AM CST 7:43 PM CST
Moon 4:13 AM CST (3/8) 3:26 PM CST (3/8)
Length of Visible Light 12h 33m
Length of Day
11h 44m
Waning Crescent, 11% of the Moon is Illuminated
Mar 8
Waning Crescent
Mar 11
New
Mar 19
First Quarter
Mar 27
Full
Apr 2
Last Quarter

Hourly Weather History & Observations

Time (CST) Temp. Windchill Dew Point Humidity Pressure Visibility Wind Dir Wind Speed Gust Speed Precip Events Conditions
12:15 AM 48.9 °F - 32.0 °F 52% 30.20 in 10.0 mi SSE 4.6 mph - N/A   Clear
12:35 AM 48.2 °F - 32.2 °F 54% 30.20 in 10.0 mi Calm Calm - N/A   Clear
12:55 AM 47.3 °F - 32.7 °F 57% 30.19 in 10.0 mi SE 4.6 mph - N/A   Clear
1:15 AM 46.8 °F - 33.3 °F 59% 30.20 in 10.0 mi Calm Calm - N/A   Clear
1:35 AM 46.2 °F - 33.4 °F 61% 30.20 in 10.0 mi Calm Calm - N/A   Clear
1:55 AM 44.8 °F - 33.8 °F 65% 30.20 in 10.0 mi Calm Calm - N/A   Clear
2:15 AM 44.6 °F - 33.8 °F 66% 30.20 in 10.0 mi Calm Calm - N/A   Clear
2:35 AM 43.9 °F 42.3 °F 34.3 °F 69% 30.19 in 10.0 mi SE 3.5 mph - N/A   Clear
2:55 AM 43.7 °F 42.1 °F 35.1 °F 72% 30.18 in 10.0 mi SE 3.5 mph - N/A   Clear
3:15 AM 43.7 °F 42.1 °F 35.2 °F 72% 30.18 in 10.0 mi ESE 3.5 mph - N/A   Clear
3:35 AM 41.2 °F - 34.0 °F 76% 30.18 in 10.0 mi Calm Calm - N/A   Clear
3:55 AM 40.6 °F - 34.7 °F 79% 30.19 in 10.0 mi Calm Calm - N/A   Clear
4:15 AM 40.6 °F - 34.9 °F 80% 30.18 in 10.0 mi Calm Calm - N/A   Clear
4:35 AM 41.2 °F - 35.6 °F 81% 30.19 in 10.0 mi Calm Calm - N/A   Clear
4:55 AM 40.6 °F - 35.4 °F 82% 30.20 in 10.0 mi Calm Calm - N/A   Clear
5:15 AM 41.2 °F - 36.5 °F 83% 30.21 in 10.0 mi Calm Calm - N/A   Clear
5:35 AM 41.7 °F - 36.0 °F 80% 30.21 in 10.0 mi Calm Calm - N/A   Clear
5:55 AM 41.7 °F - 37.2 °F 84% 30.21 in 10.0 mi Calm Calm - N/A   Clear
6:15 AM 41.9 °F - 37.0 °F 83% 30.21 in 10.0 mi Calm Calm - N/A   Clear
6:35 AM 42.6 °F - 36.7 °F 79% 30.22 in 10.0 mi Calm Calm - N/A   Clear
6:55 AM 42.8 °F - 37.4 °F 81% 30.22 in 10.0 mi Calm Calm - N/A   Clear
7:15 AM 46.4 °F - 38.5 °F 74% 30.23 in 10.0 mi Calm Calm - N/A   Scattered Clouds
7:35 AM 47.7 °F - 38.7 °F 71% 30.23 in 10.0 mi East 3.5 mph - N/A   Scattered Clouds
7:55 AM 49.3 °F - 39.2 °F 68% 30.23 in 10.0 mi ESE 3.5 mph - N/A   Scattered Clouds
8:15 AM 50.5 °F - 38.8 °F 64% 30.24 in 10.0 mi East 5.8 mph - N/A   Mostly Cloudy
8:35 AM 51.8 °F - 39.2 °F 62% 30.24 in 10.0 mi East 5.8 mph - N/A   Overcast
8:55 AM 53.2 °F - 39.2 °F 59% 30.24 in 10.0 mi ESE 4.6 mph - N/A   Overcast
9:15 AM 55.2 °F - 39.2 °F 55% 30.25 in 10.0 mi ESE 6.9 mph - N/A   Overcast
9:35 AM 55.9 °F - 37.9 °F 51% 30.26 in 10.0 mi ESE 5.8 mph - N/A   Overcast
9:55 AM 58.1 °F - 37.6 °F 46% 30.27 in 10.0 mi SE 9.2 mph - N/A   Mostly Cloudy
10:15 AM 58.1 °F - 37.9 °F 47% 30.27 in 10.0 mi ESE 8.1 mph - N/A   Mostly Cloudy
10:35 AM 59.9 °F - 39.7 °F 47% 30.26 in 10.0 mi ESE 5.8 mph - N/A   Overcast
10:55 AM 60.4 °F - 41.5 °F 50% 30.27 in 10.0 mi ESE 4.6 mph - N/A   Overcast
11:15 AM 61.3 °F - 41.4 °F 48% 30.26 in 10.0 mi East 4.6 mph - N/A   Mostly Cloudy
11:35 AM 62.8 °F - 42.1 °F 47% 30.24 in 10.0 mi SE 9.2 mph - N/A   Scattered Clouds
11:55 AM 64.9 °F - 43.0 °F 45% 30.24 in 10.0 mi ESE 8.1 mph - N/A   Clear
12:15 PM 65.5 °F - 44.6 °F 47% 30.21 in 10.0 mi ESE 10.4 mph 16.1 mph N/A   Scattered Clouds
12:35 PM 64.9 °F - 45.5 °F 49% 30.20 in 10.0 mi SE 9.2 mph - N/A   Scattered Clouds
12:55 PM 65.7 °F - 45.7 °F 48% 30.18 in 10.0 mi East 6.9 mph - N/A   Clear
1:15 PM 68.9 °F - 44.1 °F 41% 30.17 in 10.0 mi East 11.5 mph 17.3 mph N/A   Clear
1:35 PM 69.6 °F - 44.1 °F 40% 30.14 in 10.0 mi East 10.4 mph 16.1 mph N/A   Clear
1:55 PM 71.1 °F - 43.3 °F 37% 30.14 in 10.0 mi SE 9.2 mph - N/A   Clear
2:15 PM 70.9 °F - 42.3 °F 36% 30.13 in 10.0 mi SSE 12.7 mph 18.4 mph N/A   Clear
2:35 PM 71.4 °F - 41.2 °F 33% 30.12 in 10.0 mi SE 10.4 mph - N/A   Clear
2:55 PM 71.6 °F - 40.8 °F 33% 30.12 in 10.0 mi SSE 10.4 mph 17.3 mph N/A   Clear
3:15 PM 72.5 °F - 40.5 °F 31% 30.11 in 10.0 mi ESE 12.7 mph - N/A   Clear
3:35 PM 70.7 °F - 40.8 °F 34% 30.11 in 10.0 mi SE 6.9 mph - N/A   Scattered Clouds
3:55 PM 70.7 °F - 40.6 °F 34% 30.10 in 10.0 mi SSE 9.2 mph - N/A   Mostly Cloudy
4:15 PM 70.2 °F - 41.9 °F 36% 30.10 in 10.0 mi SE 9.2 mph - N/A   Overcast
4:35 PM 70.0 °F - 43.2 °F 38% 30.10 in 10.0 mi ESE 9.2 mph - N/A   Overcast
4:55 PM 69.4 °F - 41.2 °F 36% 30.11 in 10.0 mi SE 10.4 mph - N/A   Overcast
5:15 PM 68.7 °F - 41.4 °F 37% 30.12 in 10.0 mi SSE 6.9 mph - N/A   Overcast
5:35 PM 68.2 °F - 43.2 °F 40% 30.11 in 10.0 mi SE 11.5 mph - N/A   Overcast
5:55 PM 67.1 °F - 44.1 °F 43% 30.11 in 10.0 mi SE 5.8 mph - N/A   Scattered Clouds
6:15 PM 66.2 °F - 41.5 °F 41% 30.09 in 10.0 mi East 8.1 mph - N/A   Clear
6:35 PM 65.3 °F - 40.1 °F 40% 30.10 in 10.0 mi ESE 6.9 mph - N/A   Clear
6:55 PM 64.8 °F - 39.6 °F 40% 30.11 in 10.0 mi ESE 5.8 mph - N/A   Scattered Clouds
7:15 PM 64.0 °F - 38.3 °F 39% 30.11 in 10.0 mi ESE 6.9 mph - N/A   Scattered Clouds
7:35 PM 63.9 °F - 39.2 °F 40% 30.09 in 10.0 mi ESE 8.1 mph - N/A   Scattered Clouds
7:55 PM 63.9 °F - 38.3 °F 39% 30.07 in 10.0 mi ESE 8.1 mph - N/A   Clear
8:15 PM 63.7 °F - 38.5 °F 39% 30.08 in 10.0 mi ESE 8.1 mph - N/A   Clear
8:35 PM 63.5 °F - 39.0 °F 41% 30.09 in 10.0 mi SE 6.9 mph - N/A   Scattered Clouds
8:55 PM 63.5 °F - 39.4 °F 41% 30.09 in 10.0 mi SE 5.8 mph - N/A   Scattered Clouds
9:15 PM 63.1 °F - 40.3 °F 43% 30.09 in 10.0 mi SE 4.6 mph - N/A   Clear
9:35 PM 61.0 °F - 41.9 °F 49% 30.09 in 10.0 mi SSE 3.5 mph - N/A   Clear
9:55 PM 61.0 °F - 42.8 °F 51% 30.10 in 10.0 mi Calm Calm - N/A   Clear
10:15 PM 61.2 °F - 44.4 °F 54% 30.10 in 7.0 mi SSE 3.5 mph - N/A   Clear
10:35 PM 61.2 °F - 46.4 °F 58% 30.10 in 10.0 mi SSE 4.6 mph - N/A   Clear
10:55 PM 61.7 °F - 47.3 °F 59% 30.10 in 10.0 mi SSE 3.5 mph - N/A   Clear
11:15 PM 61.5 °F - 47.8 °F 61% 30.10 in 10.0 mi SSE 4.6 mph - N/A   Clear
11:35 PM 61.0 °F - 48.4 °F 63% 30.09 in 10.0 mi South 6.9 mph - N/A   Clear
11:55 PM 60.1 °F - 48.7 °F 66% 30.08 in 10.0 mi South 4.6 mph - N/A   Clear